Location: Fazenda Monte Alegre
(4.8500°S, 38.0333°W)
Time: 15:35:00
(UTC+00:00)

Okean O Rocket - Pass Details

Date: 24 September 2020
Orbit: 622 x 645 km, 98.2° (Epoch: 19 October)

Event Time Altitude Azimuth Distance (km) Brightness Sun altitude
Rises 20:41:25 0° 177° (S) 2,951 5.0 -4.3°
Reaches altitude 10° 20:43:41 10° 183° (S) 2,041 4.3 -4.9°
Maximum altitude 20:47:59 50° 258° (WSW) 824 2.8 -5.9°
Drops below altitude 10° 20:52:17 10° 333° (NNW) 2,034 4.6 -7.0°
Sets 20:54:32 0° 338° (NNW) 2,939 5.3 -7.6°
